FW6806 Weather Reports


time (UTC)temp
C
wind
direction
speed
KPH
gust
KPH
rain 1hr
cm
rain 24hr
cm
rain mn
cm
humidity
%
barometer
mb
20260505040012 16 47 4.8 9.7 0.00 0.00 0.00 60 1008.7
20260505034514 16 88 1.6 8.0 0.00 0.00 0.00 58 1008.6
20260505033009 16 73 3.2 6.4 0.00 0.00 0.00 57 1008.7
20260505031520 16 360 1.6 6.4 0.00 0.00 0.00 55 1008.7
20260505030008 17 360 3.2 9.7 0.00 0.00 0.00 54 1008.5
20260505024505 17 92 4.8 9.7 0.00 0.00 0.00 53 1008.8
20260505023009 17 68 1.6 8.0 0.00 0.00 0.00 53 1008.9
20260505021505 17 76 1.6 6.4 0.00 0.00 0.00 53 1008.8
20260505020004 17 62 1.6 6.4 0.00 0.00 0.00 52 1008.9
20260505014501 18 51 1.6 6.4 0.00 0.00 0.00 51 1008.7
20260505013001 18 51 3.2 8.0 0.00 0.00 0.00 51 1008.7
20260505011608 18 60 3.2 8.0 0.00 0.00 0.00 50 1008.6
20260505004600 19 86 3.2 9.7 0.00 0.00 0.00 49 1008.3
20260505003057 19 69 4.8 12.9 0.00 0.00 0.00 49 1008.1
20260505001558 20 63 3.2 8.0 0.00 0.00 0.00 49 1008.0
20260505000114 20 84 3.2 9.7 0.00 0.00 0.00 50 1007.9
20260504234555 20 73 9.7 16.1 0.00 0.00 0.00 47 1007.7
20260504233106 21 119 8.0 14.5 0.00 0.00 0.00 45 1007.7
20260504231550 21 82 9.7 20.9 0.00 0.00 0.00 43 1007.8
20260504230049 21 88 9.7 19.3 0.00 0.00 0.00 43 1007.8
20260504224556 21 122 9.7 20.9 0.00 0.00 0.00 40 1007.7
20260504223109 22 95 6.4 22.5 0.00 0.00 0.00 41 1007.7
20260504221544 22 67 9.7 20.9 0.00 0.00 0.00 40 1007.9
20260504220043 22 114 8.0 24.1 0.00 0.00 0.00 37 1008.0
20260504214542 22 84 11.3 17.7 0.00 0.00 0.00 39 1008.1
20260504213051 22 84 11.3 20.9 0.00 0.00 0.00 40 1007.9
20260504211538 22 80 9.7 22.5 0.00 0.00 0.00 38 1008.0
20260504210040 22 57 8.0 16.1 0.00 0.00 0.00 38 1008.0
20260504204543 22 69 9.7 27.4 0.00 0.00 0.00 36 1008.2
20260504203038 22 156 12.9 32.2 0.00 0.00 0.00 35 1008.3
20260504201531 22 142 12.9 33.8 0.00 0.00 0.00 36 1008.6
20260504200031 22 117 12.9 27.4 0.00 0.00 0.00 36 1008.7
20260504194527 21 77 11.3 29.0 0.00 0.00 0.00 38 1008.9
20260504193025 21 56 8.0 27.4 0.00 0.00 0.00 38 1008.9
20260504191521 21 65 8.0 24.1 0.00 0.00 0.00 38 1009.3
20260504190017 21 61 16.1 27.4 0.00 0.00 0.00 38 1009.3
20260504184517 21 9 11.3 25.7 0.00 0.00 0.00 37 1009.4
20260504183011 21 75 9.7 29.0 0.00 0.00 0.00 37 1009.7
20260504181513 21 118 11.3 25.7 0.00 0.00 0.00 36 1009.9
20260504180008 20 135 16.1 30.6 0.00 0.00 0.00 36 1010.2
20260504174504 21 141 16.1 22.5 0.00 0.00 0.00 35 1010.4
20260504173102 20 117 11.3 29.0 0.00 0.00 0.00 36 1010.6
20260504171556 20 87 8.0 24.1 0.00 0.00 0.00 37 1010.6
20260504081523 8 360 6.4 14.5 0.00 0.00 0.00 71 1013.1
20260504044533 11 360 3.2 8.0 0.00 0.00 0.00 49 1012.7
20260504043024 11 360 3.2 8.0 0.00 0.00 0.00 48 1012.5
20260504041548 11 360 3.2 8.0 0.00 0.00 0.00 48 1012.3